• In United Kingdom
  • List of Countries
  • For 7 days
  • Water Temperature
  • Satellite Maps
  • Weather Map
  • Weather Widgets
  • user-avatar
    Login

    Hourly Weather Chakhansur

    Today, 23 October, Tuesday

    Time Temperature Precipitation Wind Pressure Humidity
    00:00 +26°C° 0 mm 1 mps 718 mmHg 17%
    01:00 +25°C° 0 mm 1 mps 718 mmHg 17%
    02:00 +25°C° 0 mm 1 mps 718 mmHg 18%
    03:00 +25°C° 0 mm 1 mps 718 mmHg 18%
    04:00 +24°C° 0 mm 2 mps 718 mmHg 19%
    05:00 +25°C° 0 mm 2 mps 719 mmHg 18%
    06:00 +25°C° 0 mm 2 mps 719 mmHg 18%
    07:00 +25°C° 0 mm 2 mps 719 mmHg 18%
    08:00 +27°C° 0 mm 2 mps 719 mmHg 16%
    09:00 +29°C° 0 mm 2 mps 720 mmHg 15%
    10:00 +31°C° 0 mm 2 mps 720 mmHg 13%
    11:00 +32°C° 0 mm 1 mps 720 mmHg 12%
    12:00 +33°C° 0 mm 1 mps 719 mmHg 12%
    13:00 +33°C° 0 mm 1 mps 719 mmHg 12%
    14:00 +33°C° 0 mm 1 mps 719 mmHg 12%
    15:00 +34°C° 0 mm 1 mps 718 mmHg 12%
    16:00 +34°C° 0 mm 1 mps 718 mmHg 12%
    17:00 +32°C° 0 mm 1 mps 718 mmHg 13%
    18:00 +31°C° 0 mm 2 mps 718 mmHg 14%
    19:00 +29°C° 0 mm 2 mps 718 mmHg 15%
    20:00 +29°C° 0 mm 2 mps 718 mmHg 16%
    21:00 +29°C° 0 mm 2 mps 718 mmHg 16%
    22:00 +28°C° 0 mm 2 mps 718 mmHg 17%
    23:00 +28°C° 0 mm 2 mps 718 mmHg 18%

    Tomorrow, 24 October, Wednesday

    Time Temperature Precipitation Wind Pressure Humidity
    00:00 +27°C° 0 mm 2 mps 718 mmHg 19%
    01:00 +27°C° 0 mm 2 mps 718 mmHg 20%
    02:00 +26°C° 0 mm 2 mps 717 mmHg 21%
    03:00 +26°C° 0 mm 2 mps 717 mmHg 22%
    04:00 +25°C° 0 mm 2 mps 717 mmHg 23%
    05:00 +25°C° 0 mm 2 mps 718 mmHg 23%
    06:00 +25°C° 0 mm 2 mps 718 mmHg 23%
    07:00 +25°C° 0 mm 1 mps 718 mmHg 23%
    08:00 +27°C° 0 mm 1 mps 719 mmHg 20%
    09:00 +29°C° 0 mm 1 mps 719 mmHg 18%
    10:00 +31°C° 0 mm 1 mps 719 mmHg 16%
    11:00 +32°C° 0 mm 1 mps 719 mmHg 15%
    12:00 +33°C° 0 mm 1 mps 718 mmHg 14%
    13:00 +34°C° 0 mm 1 mps 718 mmHg 13%
    14:00 +34°C° 0 mm 1 mps 717 mmHg 13%
    15:00 +35°C° 0 mm 2 mps 717 mmHg 13%
    16:00 +35°C° 0 mm 2 mps 717 mmHg 13%
    17:00 +32°C° 0 mm 2 mps 717 mmHg 14%
    18:00 +31°C° 0 mm 1 mps 717 mmHg 16%
    19:00 +29°C° 0 mm 1 mps 717 mmHg 17%
    20:00 +29°C° 0 mm 1 mps 717 mmHg 18%
    21:00 +28°C° 0 mm 1 mps 717 mmHg 18%
    22:00 +28°C° 0 mm 1 mps 718 mmHg 19%
    23:00 +27°C° 0 mm 1 mps 718 mmHg 19%

    Day after tomorrow, 25 October, Thursday

    Time Temperature Precipitation Wind Pressure Humidity
    00:00 +27°C° 0 mm 1 mps 717 mmHg 20%
    01:00 +26°C° 0 mm 1 mps 717 mmHg 20%
    02:00 +26°C° 0 mm 1 mps 717 mmHg 21%
    03:00 +25°C° 0 mm 1 mps 717 mmHg 22%
    04:00 +25°C° 0 mm 1 mps 717 mmHg 23%
    05:00 +25°C° 0 mm 1 mps 718 mmHg 22%
    06:00 +25°C° 0 mm 1 mps 718 mmHg 22%
    07:00 +26°C° 0 mm 1 mps 719 mmHg 22%
    08:00 +28°C° 0 mm 2 mps 719 mmHg 20%
    09:00 +30°C° 0 mm 2 mps 719 mmHg 17%
    10:00 +32°C° 0 mm 2 mps 720 mmHg 15%
    11:00 +34°C° 0 mm 2 mps 719 mmHg 15%
    12:00 +35°C° 0 mm 2 mps 719 mmHg 14%
    13:00 +36°C° 0 mm 3 mps 718 mmHg 14%
    14:00 +36°C° 0 mm 2 mps 718 mmHg 14%
    15:00 +36°C° 0 mm 2 mps 718 mmHg 14%
    16:00 +36°C° 0 mm 2 mps 718 mmHg 14%
    17:00 +34°C° 0 mm 2 mps 718 mmHg 16%
    18:00 +31°C° 0 mm 1 mps 718 mmHg 18%
    19:00 +30°C° 0 mm 1 mps 718 mmHg 19%
    20:00 +30°C° 0 mm 2 mps 719 mmHg 20%
    21:00 +30°C° 0 mm 2 mps 719 mmHg 20%
    22:00 +29°C° 0 mm 3 mps 719 mmHg 20%
    23:00 +29°C° 0 mm 3 mps 719 mmHg 20%

    26 October, Friday

    Time Temperature Precipitation Wind Pressure Humidity
    00:00 +28°C° 0 mm 3 mps 719 mmHg 20%
    01:00 +28°C° 0 mm 3 mps 719 mmHg 21%
    02:00 +27°C° 0 mm 3 mps 719 mmHg 23%
    03:00 +27°C° 0 mm 3 mps 719 mmHg 24%
    04:00 +26°C° 0 mm 3 mps 719 mmHg 26%
    05:00 +26°C° 0 mm 3 mps 720 mmHg 27%
    06:00 +26°C° 0 mm 3 mps 720 mmHg 28%
    07:00 +26°C° 0 mm 3 mps 721 mmHg 29%
    08:00 +29°C° 0 mm 3 mps 721 mmHg 27%
    09:00 +31°C° 0 mm 3 mps 721 mmHg 25%
    10:00 +34°C° 0 mm 3 mps 722 mmHg 23%
    11:00 +35°C° 0 mm 3 mps 721 mmHg 21%
    12:00 +36°C° 0 mm 3 mps 721 mmHg 19%
    13:00 +37°C° 0 mm 3 mps 720 mmHg 17%
    14:00 +37°C° 0 mm 3 mps 720 mmHg 17%
    15:00 +37°C° 0 mm 3 mps 719 mmHg 16%
    16:00 +37°C° 0 mm 3 mps 719 mmHg 16%
    17:00 +36°C° 0 mm 2 mps 719 mmHg 17%
    18:00 +34°C° 0 mm 2 mps 719 mmHg 19%
    19:00 +32°C° 0 mm 2 mps 719 mmHg 21%
    20:00 +31°C° 0 mm 2 mps 720 mmHg 21%
    21:00 +31°C° 0 mm 3 mps 720 mmHg 22%
    22:00 +32°C° 0 mm 4 mps 720 mmHg 22%
    23:00 +30°C° 0 mm 3 mps 720 mmHg 23%

    27 October, Saturday

    Time Temperature Precipitation Wind Pressure Humidity
    00:00 +29°C° 0 mm 3 mps 720 mmHg 24%
    01:00 +29°C° 0 mm 3 mps 719 mmHg 24%
    02:00 +28°C° 0 mm 3 mps 719 mmHg 25%
    03:00 +28°C° 0 mm 3 mps 719 mmHg 25%
    04:00 +28°C° 0 mm 3 mps 719 mmHg 26%
    05:00 +27°C° 0 mm 3 mps 720 mmHg 26%
    06:00 +27°C° 0 mm 3 mps 720 mmHg 26%
    07:00 +27°C° 0 mm 3 mps 721 mmHg 27%
    08:00 +29°C° 0 mm 3 mps 721 mmHg 24%
    09:00 +31°C° 0 mm 3 mps 721 mmHg 22%
    10:00 +34°C° 0 mm 3 mps 721 mmHg 19%
    11:00 +35°C° 0 mm 3 mps 721 mmHg 18%
    12:00 +36°C° 0 mm 3 mps 720 mmHg 17%
    13:00 +37°C° 0 mm 3 mps 720 mmHg 16%
    14:00 +37°C° 0 mm 3 mps 719 mmHg 16%
    15:00 +37°C° 0 mm 3 mps 719 mmHg 15%
    16:00 +37°C° 0 mm 3 mps 719 mmHg 15%
    17:00 +36°C° 0 mm 2 mps 719 mmHg 16%
    18:00 +34°C° 0 mm 2 mps 719 mmHg 17%
    19:00 +31°C° 0 mm 2 mps 719 mmHg 18%
    20:00 +31°C° 0 mm 2 mps 719 mmHg 18%
    21:00 +31°C° 0 mm 2 mps 719 mmHg 18%
    22:00 +30°C° 0 mm 3 mps 720 mmHg 18%
    23:00 +30°C° 0 mm 3 mps 719 mmHg 18%

    28 October, Sunday

    Time Temperature Precipitation Wind Pressure Humidity
    00:00 +29°C° 0 mm 3 mps 719 mmHg 18%
    01:00 +29°C° 0 mm 3 mps 719 mmHg 18%
    02:00 +27°C° 0 mm 5 mps 719 mmHg 25%
    03:00 +26°C° 0 mm 7 mps 720 mmHg 32%
    04:00 +24°C° 0 mm 8 mps 720 mmHg 39%
    05:00 +24°C° 0 mm 9 mps 720 mmHg 41%
    06:00 +23°C° 0 mm 10 mps 721 mmHg 44%
    07:00 +22°C° 0 mm 12 mps 722 mmHg 47%
    08:00 +23°C° 0 mm 12 mps 722 mmHg 43%
    09:00 +24°C° 0 mm 12 mps 723 mmHg 39%
    10:00 +26°C° 0 mm 12 mps 723 mmHg 35%
    11:00 +27°C° 0 mm 13 mps 723 mmHg 34%
    12:00 +27°C° 0 mm 13 mps 722 mmHg 32%
    13:00 +28°C° 0 mm 13 mps 722 mmHg 30%
    14:00 +27°C° 0 mm 13 mps 722 mmHg 31%
    15:00 +26°C° 0 mm 13 mps 722 mmHg 31%
    16:00 +26°C° 0 mm 13 mps 722 mmHg 32%
    17:00 +23°C° 0 mm 13 mps 722 mmHg 35%
    18:00 +22°C° 0 mm 12 mps 722 mmHg 38%
    19:00 +21°C° 0 mm 12 mps 722 mmHg 41%
    20:00 +19°C° 0 mm 12 mps 722 mmHg 41%
    21:00 +19°C° 0 mm 12 mps 722 mmHg 42%
    22:00 +18°C° 0 mm 12 mps 723 mmHg 42%
    23:00 +18°C° 0 mm 11 mps 722 mmHg 43%

    29 October, Monday

    Time Temperature Precipitation Wind Pressure Humidity
    00:00 +18°C° 0 mm 11 mps 722 mmHg 45%
    01:00 +17°C° 0 mm 11 mps 722 mmHg 46%
    02:00 +17°C° 0 mm 11 mps 722 mmHg 45%
    03:00 +16°C° 0 mm 11 mps 722 mmHg 43%
    04:00 +16°C° 0 mm 11 mps 722 mmHg 41%
    05:00 +16°C° 0 mm 10 mps 722 mmHg 39%
    06:00 +16°C° 0 mm 10 mps 722 mmHg 38%
    07:00 +14°C° 0 mm 10 mps 723 mmHg 36%
    08:00 +16°C° 0 mm 10 mps 723 mmHg 33%
    09:00 +17°C° 0 mm 10 mps 723 mmHg 31%
    10:00 +18°C° 0 mm 9 mps 723 mmHg 28%
    11:00 +19°C° 0 mm 9 mps 723 mmHg 26%
    12:00 +21°C° 0 mm 9 mps 723 mmHg 24%
    13:00 +22°C° 0 mm 9 mps 723 mmHg 22%
    14:00 +22°C° 0 mm 9 mps 723 mmHg 22%
    15:00 +22°C° 0 mm 9 mps 723 mmHg 22%
    16:00 +22°C° 0 mm 9 mps 723 mmHg 22%
    17:00 +21°C° 0 mm 8 mps 723 mmHg 22%
    18:00 +21°C° 0 mm 8 mps 723 mmHg 23%
    19:00 +20°C° 0 mm 7 mps 723 mmHg 23%
    20:00 +20°C° 0 mm 7 mps 723 mmHg 24%
    21:00 +18°C° 0 mm 8 mps 724 mmHg 25%
    22:00 +18°C° 0 mm 8 mps 724 mmHg 25%
    23:00 +17°C° 0 mm 8 mps 724 mmHg 28%
    Show more